Welcome to the New NWS' Forecast!
Most changes are behind the scenes, but click here for differences you might notice.
Latest weather observations around

Seattle, Seattle-Tacoma International Airport (KSEA)

Using English Units (Switch to International System of Units)
Date/ Time (PDT) Wind (mph) Vis. (mi) Weather Sky Cond. Temp (°F) Rel. Humidity Wind Chill (°F) Heat Index (°F) Pressure Precip. (in)
Air Dwpt 6 hour Altimeter (inHg) Sea level (inHg) 1 hr 3 hr 6 hr
Max Min
Jul 16 02:53 NE 5 10 Clear CLR 70 47     44%     30 30      
Jul 16 01:53 NE 7 10 Clear CLR 72 47     41%   71 30 30      
Jul 16 00:53 NNE 7 10 Clear CLR 74 49     41%   73 29.99 30      
Jul 15 23:53 N 8 10 Clear CLR 76 46     35%   75 29.99 29.99      
Jul 15 22:53 NNE 11 10 Clear CLR 78 47     33%   77 29.98 29.98      
Jul 15 21:53 N 9 10 Mostly Clear FEW200 77 48     36%   76 29.97 29.98      
Jul 15 20:53 N 8 10 Mostly Clear FEW200 82 51     34%   81 29.96 29.96      
Jul 15 19:53 NNW 10 10 Mostly Clear FEW150 86 50     29%   84 29.95 29.96      
Jul 15 18:53 NNW 13 10 Mostly Clear FEW150 89 50     26%   86 29.94 29.95      
Jul 15 17:53 NNW 11 10 Mostly Clear FEW150 92 48     22%   89 29.95 29.95      
Jul 15 16:53 N 10 10 Mostly Clear FEW150 92 52     26%   89 29.96 29.96      
Jul 15 15:53 N 10 10 Mostly Clear FEW150 92 51     25%   89 29.97 29.98      
Jul 15 14:53 N 10 10 Mostly Clear FEW150 90 52     27%   87 29.99 30      
Jul 15 13:53 NNW 11 10 Mostly Clear FEW190 89 52     28%   87 30 30.01      
Jul 15 12:53 N 8 10 Mostly Clear FEW200 87 53     31%   85 30.02 30.02      
Jul 15 11:53 N 7 10 Mostly Clear FEW200 84 53     35%   83 30.02 30.03      
Jul 15 10:53 NNE 10 10 Mostly Clear FEW200 81 52     37%   80 30.03 30.03      
Jul 15 09:53 N 11 10 Mostly Clear FEW200 78 53     42%   78 30.04 30.05      
Jul 15 08:53 NW 8 10 Mostly Clear FEW200 76 55     48%   75 30.05 30.06      
Jul 15 07:53 NE 5 10 Mostly Clear FEW240 72 55     55%   71 30.05 30.06      
Jul 15 06:53 NE 5 10 Mostly Clear FEW230 68 55     63%     30.05 30.05      
Jul 15 05:53 Calm 10 Mostly Clear FEW220 64 53     67%     30.04 30.05      
Jul 15 04:53 NW 3 10 Mostly Clear FEW250 64 51     63%     30.04 30.05      
Jul 15 03:53 NE 6 10 Clear CLR 68 51     55%     30.04 30.05      
Jul 15 02:53 Calm 10 Clear CLR 69 53     57%     30.04 30.05      
Jul 15 01:53 N 7 10 Clear CLR 69 52     54%     30.04 30.05      
Jul 15 00:53 N 7 10 Clear CLR 70 51     51%     30.04 30.05      
Jul 14 23:53 NNE 9 10 Clear CLR 75 50     41%   74 30.04 30.05      
Jul 14 22:53 NNE 10 10 Mostly Clear FEW200 76 50     40%   75 30.05 30.06      
Jul 14 21:53 N 8 10 Mostly Clear FEW200 75 50     41%   74 30.05 30.06      
Jul 14 20:53 N 9 10 Mostly Clear FEW200 77 51     40%   76 30.05 30.06      
Jul 14 19:53 N 11 10 Mostly Clear FEW200 82 50     33%   81 30.05 30.06      
Jul 14 18:53 N 13 10 Mostly Clear FEW200 85 52     32%   83 30.05 30.06      
Jul 14 17:53 NNW 14 10 Mostly Clear FEW200 87 49     27%   84 30.06 30.07      
Jul 14 16:53 NNE 10 10 Clear CLR 87 51     29%   85 30.07 30.09      
Jul 14 15:53 N 10 10 Clear CLR 85 53     34%   83 30.09 30.1      
Jul 14 14:53 5 10 Clear CLR 83 54     37%   82 30.1 30.11      
Jul 14 13:53 N 9 10 Clear CLR 81 52     37%   80 30.12 30.12      
Jul 14 12:53 NNW 9 10 Clear CLR 80 52     38%   80 30.13 30.14      
Jul 14 11:53 N 13 10 Clear CLR 76 52     43%   75 30.13 30.14      
Jul 14 10:53 W 9 10 Clear CLR 73 53     50%   72 30.15 30.15      
Jul 14 09:53 W 6 10 Clear CLR 69 53     57%     30.15 30.16      
Jul 14 08:53 5 10 Clear CLR 69 50     51%     30.16 30.17      
Jul 14 07:53 Calm 10 Clear CLR 65 53     65%     30.16 30.17      
Jul 14 06:53 S 3 10 Clear CLR 60 53     78%     30.16 30.16      
Jul 14 04:53 Calm 10 Partly Cloudy SCT060 59 51     75%     30.14 30.15      
Jul 14 03:53 W 3 10 Partly Cloudy SCT065 60 51     72%     30.13 30.14      
Jul 14 02:53 WSW 3 10 Mostly Cloudy BKN065 62 51     67%     30.12 30.13      
Jul 14 00:53 W 3 10 Clear CLR 66 51     59%     30.09 30.1      
Jul 13 22:53 Calm 10 Mostly Clear FEW250 70 50     49%     30.07 30.08      
Jul 13 21:53 N 8 10 Mostly Clear FEW250 73 49     43%   72 30.06 30.07      
Jul 13 20:53 N 11 10 Partly Cloudy SCT250 75 49     40%   74 30.05 30.05      
Jul 13 19:53 NW 7 10 Partly Cloudy SCT250 82 51     34%   81 30.04 30.04      
Jul 13 18:53 WNW 6 10 Partly Cloudy SCT250 83 53     36%   82 30.03 30.04      
Jul 13 17:53 WNW 5 10 Partly Cloudy SCT250 84 53     35%   83 30.04 30.04      
Jul 13 16:53 7 10 Partly Cloudy SCT250 84 53     35%   83 30.05 30.06      
Jul 13 15:53 NNW 6 10 Partly Cloudy SCT250 84 52     33%   82 30.05 30.06      
Jul 13 14:53 6 10 Partly Cloudy SCT250 84 51     32%   82 30.06 30.07      
Jul 13 13:53 NW 9 10 Partly Cloudy SCT250 81 50     34%   80 30.07 30.08      
Jul 13 12:53 NW 9 10 Mostly Clear FEW250 79 52     39%   78 30.07 30.08      
Jul 13 11:53 W 9 10 Mostly Clear FEW250 76 54     47%   75 30.07 30.08      
Jul 13 10:53 WNW 9 10 Mostly Clear FEW250 75 54     48%   74 30.07 30.08      
Jul 13 09:53 W 7 10 Mostly Clear FEW250 72 55     55%   71 30.08 30.09      
Jul 13 08:53 NNW 6 10 Mostly Clear FEW250 70 54     57%     30.08 30.09      
Jul 13 07:53 N 7 10 Mostly Clear FEW250 68 53     59%     30.07 30.08      
Jul 13 06:53 N 6 10 Clear CLR 65 53     65%     30.06 30.07      
Jul 13 05:53 N 6 10 Mostly Clear FEW250 61 51     70%     30.05 30.06      
Jul 13 04:53 N 3 10 Clear CLR 62 51     67%     30.04 30.05      
Jul 13 03:53 NNW 8 10 Clear CLR 62 52     70%     30.04 30.05      
Jul 13 02:53 NW 5 10 Clear CLR 66 52     61%     30.04 30.05      
May 15 00:53 WSW 6 10 Mostly Clear FEW250 63 51     65%     29.89 29.9      
May 14 14:53 NW 8 10 Mostly Clear FEW050 FEW250 84 55     37%   83 29.9 29.91      
May 14 05:53 SSW 3 10 Mostly Clear FEW250 59 52     78%     29.96 29.97      
May 13 17:53 N 5 10 Mostly Clear FEW250 84 46     27%   82 29.9 29.91      
May 13 01:53 NE 7 10 Clear CLR 60 47     62%     29.97 29.98      
May 12 18:53 NNE 13 10 Mostly Clear FEW030 74 49     41%   73 29.98 29.99      
May 12 17:53 N 13 10 Mostly Clear FEW030 76 49     39%   75 29.99 30.01      
May 12 13:53 NNE 11 10 Clear   72 51     48%   71 30.07 30.08      
Jun 12 03:53 SW 7 10 Partly Cloudy SCT011 52 49     89%     30 30.02      
Jun 11 13:53 WSW 7 10 Partly Cloudy FEW040 SCT170 65 48     54%     30.02 30.04      
Jun 11 02:53 S 5 10 Mostly Cloudy SCT080 BKN180 53 49     86%     29.99 30.01      
Jun 10 15:53 WNW 10 10 Partly Cloudy SCT045 SCT200 66 41     40%     29.86 29.87      
Jun 07 10:53 W 7 10 Mostly Cloudy FEW120 BKN250 67 48     51%     29.78 29.79      
Jun 06 05:53 NNE 6 10 Partly Cloudy SCT140 SCT250 56 43     62%     30.01 30.03      
Jun 05 21:53 N 8 10 Mostly Cloudy BKN250 62 43     50%     30.06 30.07